User: anonymous   Login
Location: Noverd
(38.0910°N, 121.6877°W)
Time: 09:48:46
(UTC+00:00)
Language:

Cosmos 1300 Rocket - Orbit

View from above orbital plane
View from above orbital plane
View from above satellite
View from above satellite

Ground track
Ground track

The orbit is defined by the following mean orbital elements,

1 12786U          26106.89709382 +.00000000 +00000-0 +25640-4 0 00009
2 12786  82.4889 164.4630 0017710  41.3031 318.9522 14.87179742    07
Epoch (UTC): 16 April 2026 21:31:48
Eccentricity: 0.0017710
inclination: 82.4889°
perigee height: 594 km
apogee height: 619 km
right ascension of ascending node: 164.4630°
argument of perigee: 41.3031°
revolutions per day: 14.87179742
mean anomaly at epoch: 318.9522°

The dashed part of the orbit path shows where the satellite is in the earth's shadow,  

DLR